Home   Weather   Greensboro   Past weeks

Flag for USA Past Weather in Greensboro, North Carolina, USA — Yesterday and Last 2 Weeks

Now
56 °F

Passing clouds.


Feels Like: 54 °F
Forecast: 40 / 62 °F
Wind: 7 mph from North

Location: Piedmont Triad International Airport

Current Time: Jan 18, 2017 at 7:31:15 pm

Latest Report: Jan 18, 2017 at 6:54 pm


Visibility: 10 mi

Pressure: 30.02 "Hg

Humidity: 49%

Dew Point: 37 °F

Location of GreensboroLocation

Past Weather in Greensboro — Graph

°F

Greensboro Temperature Yesterday

Maximum temperature yesterday: 59 °F (at 11:54 pm)
Minimum temperature yesterday: 46 °F (at 12:54 am)
Average temperature yesterday: 53 °F

High & Low Weather Summary for the Past Weeks

 TemperatureHumidityPressure
High73 °F (Jan 13, 1:54 pm)100% (Jan 3, 5:54 pm)30.79 "Hg (Jan 3, 5:54 pm)
Low7 °F (Jan 9, 5:54 am)29% (Jan 4, 10:54 pm)29.62 "Hg (Jan 4, 1:54 am)
Average42 °F72%30.24 "Hg
* Reported Jan 3 5:54 pm — Jan 18 5:54 pm, Greensboro, Weather by CustomWeather, © 2017

Note: Actual official high and low records may vary slightly from our data, if they occured in-between our weather recording intervals... More about our weather records

Advertising

Greensboro Weather History for the Previous 24 Hours

Scroll right to see more
 ConditionsComfort  
Time TempWeatherWind HumidityBarometerVisibility
5:54 pm
Wed, Jan 18
59 °FPassing clouds.6 mph42%30.00 "Hg10 mi
4:54 pm63 °FPassing clouds.8 mph37%29.98 "Hg10 mi
3:54 pm65 °FPassing clouds.12 mph33%29.97 "Hg10 mi
2:54 pm67 °FPassing clouds.13 mph32%29.96 "Hg10 mi
1:54 pm66 °FPassing clouds.13 mph33%29.96 "Hg10 mi
12:54 pm66 °FPassing clouds.14 mph34%29.98 "Hg10 mi
11:54 am65 °FPassing clouds.13 mph36%29.98 "Hg10 mi
10:54 am63 °FPassing clouds.13 mph52%30.00 "Hg10 mi
9:54 am63 °FPassing clouds.14 mph56%29.99 "Hg10 mi
8:54 am59 °FPassing clouds.14 mph72%29.98 "Hg10 mi
7:54 am59 °FPartly sunny.10 mph84%29.96 "Hg10 mi
6:54 am59 °FOvercast.13 mph90%29.94 "Hg10 mi
5:54 am59 °FPartly cloudy.10 mph90%29.93 "Hg10 mi
4:54 am60 °FMostly cloudy.9 mph90%29.92 "Hg10 mi
3:54 am62 °FMostly cloudy.9 mph83%29.92 "Hg10 mi
2:54 am60 °FOvercast.10 mph86%29.91 "Hg10 mi
1:54 am59 °FOvercast.9 mph90%29.93 "Hg10 mi
12:54 am59 °FPassing clouds.10 mph90%29.94 "Hg10 mi
11:54 pm
Tue, Jan 17
59 °FMostly cloudy.13 mph93%29.97 "Hg10 mi
10:54 pm57 °FMostly cloudy.9 mph100%29.99 "Hg9 mi
9:54 pm57 °FMostly cloudy.10 mph96%30.02 "Hg9 mi
8:54 pm57 °FMostly cloudy.8 mph96%30.05 "Hg9 mi
7:54 pm57 °FOvercast.10 mph96%30.05 "Hg10 mi
Weather by CustomWeather, © 2017

See weather overviewHow to use our weather pages